When you browse on this site, cookies collect data to enhance your experience and personalize the content and advertising you see.
Visit our Privacy Policy to learn more. By continuing to use the site, you agree to this use of cookies and data.
  • En España
  • Lista de países
  • Para 7 días
  • Temperatura del agua
  • Mapa Satelital
  • El tiempo en el mapa
  • Informadores
  • user-avatar
    Iniciar sesión

    Tiempo cada hora Jambol

    Hoy, 18 Enero, Viernes

    Tiempo Temperatura Precipitaciones Viento Presión Humedad
    00:00 +4°C° 0 mm 1 mps 751 mmHg 87%
    01:00 +4°C° 0 mm 1 mps 751 mmHg 87%
    02:00 +4°C° 0 mm 1 mps 750 mmHg 85%
    03:00 +3°C° 0 mm 1 mps 750 mmHg 85%
    04:00 +3°C° 0 mm 1 mps 750 mmHg 85%
    05:00 +3°C° 0 mm 1 mps 750 mmHg 85%
    06:00 +3°C° 0 mm 1 mps 750 mmHg 85%
    07:00 +3°C° 0 mm 1 mps 750 mmHg 85%
    08:00 +3°C° 0 mm 1 mps 750 mmHg 81%
    09:00 +5°C° 0 mm 1 mps 750 mmHg 77%
    10:00 +5°C° 0 mm 2 mps 750 mmHg 72%
    11:00 +7°C° 0 mm 2 mps 750 mmHg 67%
    12:00 +8°C° 0 mm 2 mps 750 mmHg 64%
    13:00 +9°C° 0 mm 2 mps 750 mmHg 61%
    14:00 +9°C° 0 mm 2 mps 750 mmHg 58%
    15:00 +8°C° 0 mm 2 mps 750 mmHg 61%
    16:00 +8°C° 0 mm 1 mps 750 mmHg 65%
    17:00 +7°C° 0 mm 1 mps 750 mmHg 69%
    18:00 +7°C° 0 mm 1 mps 750 mmHg 70%
    19:00 +6°C° 0 mm 1 mps 750 mmHg 71%
    20:00 +6°C° 0 mm 1 mps 750 mmHg 71%
    21:00 +6°C° 0 mm 1 mps 750 mmHg 73%
    22:00 +5°C° 0 mm 1 mps 750 mmHg 74%
    23:00 +4°C° 0 mm 2 mps 750 mmHg 75%

    Mañana, 19 Enero, Sábado

    Tiempo Temperatura Precipitaciones Viento Presión Humedad
    00:00 +4°C° 0 mm 2 mps 750 mmHg 74%
    01:00 +5°C° 0 mm 1 mps 750 mmHg 74%
    02:00 +5°C° 0 mm 1 mps 751 mmHg 73%
    03:00 +4°C° 0 mm 1 mps 751 mmHg 72%
    04:00 +4°C° 0 mm 1 mps 751 mmHg 71%
    05:00 +4°C° 0 mm 1 mps 751 mmHg 70%
    06:00 +4°C° 0 mm 1 mps 751 mmHg 71%
    07:00 +4°C° 0 mm 1 mps 752 mmHg 71%
    08:00 +4°C° 0 mm 1 mps 752 mmHg 72%
    09:00 +6°C° 0 mm 1 mps 753 mmHg 69%
    10:00 +6°C° 0 mm 2 mps 753 mmHg 67%
    11:00 +8°C° 0 mm 2 mps 754 mmHg 65%
    12:00 +8°C° 0 mm 2 mps 753 mmHg 65%
    13:00 +8°C° 0 mm 3 mps 753 mmHg 65%
    14:00 +9°C° 0 mm 3 mps 753 mmHg 65%
    15:00 +8°C° 0 mm 3 mps 753 mmHg 70%
    16:00 +6°C° 0 mm 4 mps 753 mmHg 75%
    17:00 +5°C° 0 mm 4 mps 753 mmHg 79%
    18:00 +4°C° 0 mm 4 mps 754 mmHg 82%
    19:00 +4°C° 0 mm 4 mps 754 mmHg 85%
    20:00 +3°C° 0 mm 4 mps 754 mmHg 88%
    21:00 +3°C° 0.1 mm 4 mps 754 mmHg 89%
    22:00 +3°C° 0.1 mm 4 mps 754 mmHg 89%
    23:00 +4°C° 0.1 mm 4 mps 754 mmHg 90%

    Pasado mañana, 20 Enero, Domingo

    Tiempo Temperatura Precipitaciones Viento Presión Humedad
    00:00 +4°C° 0.5 mm 3 mps 754 mmHg 91%
    01:00 +4°C° 0.5 mm 3 mps 753 mmHg 92%
    02:00 +4°C° 0.5 mm 3 mps 753 mmHg 93%
    03:00 +4°C° 0.3 mm 3 mps 753 mmHg 93%
    04:00 +4°C° 0.3 mm 3 mps 753 mmHg 94%
    05:00 +5°C° 0.3 mm 2 mps 752 mmHg 95%
    06:00 +5°C° 0.1 mm 2 mps 752 mmHg 95%
    07:00 +5°C° 0.1 mm 2 mps 752 mmHg 96%
    08:00 +5°C° 0.1 mm 2 mps 752 mmHg 96%
    09:00 +6°C° 0.1 mm 2 mps 752 mmHg 95%
    10:00 +7°C° 0.1 mm 1 mps 752 mmHg 93%
    11:00 +8°C° 0.1 mm 1 mps 752 mmHg 92%
    12:00 +8°C° 0.1 mm 1 mps 751 mmHg 92%
    13:00 +8°C° 0.1 mm 1 mps 751 mmHg 92%
    14:00 +9°C° 0.1 mm 1 mps 750 mmHg 92%
    15:00 +9°C° 0 mm 1 mps 750 mmHg 93%
    16:00 +8°C° 0 mm 1 mps 749 mmHg 94%
    17:00 +8°C° 0 mm 1 mps 749 mmHg 95%
    18:00 +8°C° 0.1 mm 1 mps 749 mmHg 95%
    19:00 +8°C° 0.1 mm 1 mps 749 mmHg 95%
    20:00 +8°C° 0.1 mm 1 mps 749 mmHg 96%
    21:00 +8°C° 0 mm 1 mps 749 mmHg 96%
    22:00 +7°C° 0 mm 1 mps 749 mmHg 96%
    23:00 +7°C° 0 mm 1 mps 749 mmHg 96%

    21 Enero, Lunes

    Tiempo Temperatura Precipitaciones Viento Presión Humedad
    00:00 +7°C° 0 mm 1 mps 749 mmHg 96%
    01:00 +7°C° 0 mm 1 mps 749 mmHg 96%
    02:00 +7°C° 0 mm 1 mps 749 mmHg 96%
    03:00 +7°C° 0.1 mm 1 mps 749 mmHg 95%
    04:00 +7°C° 0.1 mm 1 mps 749 mmHg 94%
    05:00 +6°C° 0.1 mm 1 mps 749 mmHg 93%
    06:00 +6°C° 0 mm 1 mps 750 mmHg 92%
    07:00 +5°C° 0 mm 2 mps 750 mmHg 90%
    08:00 +4°C° 0 mm 2 mps 751 mmHg 89%
    09:00 +5°C° 0 mm 2 mps 751 mmHg 82%
    10:00 +6°C° 0 mm 2 mps 751 mmHg 75%
    11:00 +7°C° 0 mm 2 mps 752 mmHg 68%
    12:00 +8°C° 0 mm 2 mps 752 mmHg 65%
    13:00 +8°C° 0 mm 2 mps 752 mmHg 61%
    14:00 +9°C° 0 mm 2 mps 752 mmHg 58%
    15:00 +8°C° 0 mm 2 mps 752 mmHg 62%
    16:00 +7°C° 0 mm 2 mps 753 mmHg 66%
    17:00 +6°C° 0 mm 2 mps 753 mmHg 70%
    18:00 +5°C° 0 mm 2 mps 753 mmHg 74%
    19:00 +4°C° 0 mm 3 mps 754 mmHg 77%
    20:00 +3°C° 0 mm 3 mps 755 mmHg 81%
    21:00 +2°C° 0 mm 3 mps 755 mmHg 83%
    22:00 +2°C° 0 mm 3 mps 755 mmHg 84%
    23:00 +2°C° 0 mm 2 mps 756 mmHg 86%

    22 Enero, Martes

    Tiempo Temperatura Precipitaciones Viento Presión Humedad
    00:00 +2°C° 0 mm 2 mps 756 mmHg 85%
    01:00 +2°C° 0 mm 2 mps 756 mmHg 85%
    02:00 +1°C° 0 mm 2 mps 756 mmHg 84%
    03:00 +1°C° 0 mm 2 mps 756 mmHg 83%
    04:00 +1°C° 0 mm 2 mps 756 mmHg 82%
    05:00 -1°C° 0 mm 2 mps 755 mmHg 81%
    06:00 -1°C° 0 mm 2 mps 755 mmHg 81%
    07:00 -1°C° 0 mm 2 mps 755 mmHg 80%
    08:00 -1°C° 0 mm 2 mps 755 mmHg 80%
    09:00 +1°C° 0 mm 2 mps 755 mmHg 79%
    10:00 +2°C° 0 mm 2 mps 755 mmHg 78%
    11:00 +3°C° 0 mm 2 mps 755 mmHg 77%
    12:00 +3°C° 0 mm 2 mps 754 mmHg 77%
    13:00 +4°C° 0 mm 2 mps 754 mmHg 76%
    14:00 +4°C° 0 mm 2 mps 753 mmHg 76%
    15:00 +4°C° 0 mm 2 mps 752 mmHg 79%
    16:00 +4°C° 0 mm 2 mps 752 mmHg 81%
    17:00 +4°C° 0 mm 2 mps 751 mmHg 84%
    18:00 +4°C° 0 mm 2 mps 751 mmHg 86%
    19:00 +3°C° 0 mm 2 mps 751 mmHg 88%
    20:00 +2°C° 0 mm 3 mps 750 mmHg 89%
    21:00 +3°C° 0 mm 2 mps 750 mmHg 90%
    22:00 +3°C° 0 mm 2 mps 749 mmHg 90%
    23:00 +3°C° 0 mm 2 mps 749 mmHg 90%

    23 Enero, Miércoles

    Tiempo Temperatura Precipitaciones Viento Presión Humedad
    00:00 +3°C° 0 mm 2 mps 748 mmHg 91%
    01:00 +3°C° 0 mm 2 mps 747 mmHg 92%
    02:00 +3°C° 0 mm 2 mps 746 mmHg 92%
    03:00 +3°C° 0 mm 2 mps 745 mmHg 93%
    04:00 +3°C° 0 mm 2 mps 745 mmHg 93%
    05:00 +3°C° 0 mm 2 mps 744 mmHg 94%
    06:00 +2°C° 0.7 mm 3 mps 743 mmHg 94%
    07:00 +3°C° 0.7 mm 4 mps 742 mmHg 94%
    08:00 +4°C° 0.7 mm 4 mps 742 mmHg 94%
    09:00 +4°C° 2.5 mm 4 mps 741 mmHg 93%
    10:00 +5°C° 2.5 mm 4 mps 740 mmHg 93%
    11:00 +6°C° 2.5 mm 4 mps 740 mmHg 93%
    12:00 +7°C° 0.2 mm 5 mps 739 mmHg 86%
    13:00 +9°C° 0.2 mm 5 mps 738 mmHg 80%
    14:00 +10°C° 0.2 mm 6 mps 737 mmHg 73%
    15:00 +10°C° 0 mm 6 mps 737 mmHg 73%
    16:00 +9°C° 0 mm 5 mps 737 mmHg 74%
    17:00 +8°C° 0 mm 5 mps 737 mmHg 74%
    18:00 +8°C° 0 mm 5 mps 737 mmHg 77%
    19:00 +7°C° 0 mm 5 mps 736 mmHg 80%
    20:00 +6°C° 0 mm 4 mps 736 mmHg 83%
    21:00 +6°C° 0 mm 4 mps 736 mmHg 83%
    22:00 +5°C° 0 mm 4 mps 736 mmHg 84%
    23:00 +5°C° 0 mm 4 mps 736 mmHg 85%
    Mostrar más